Location: Thunder Bay
(48.4000°N, 89.2330°W)
Time: 18:27:44
(UTC-04:00)

Tianhe-1 - Visible Passes

Search period start: 20 June 2021 00:00
Search period end: 30 June 2021 00:00
Orbit: 375 x 386 km, 41.5° (Epoch: 20 June)

Date Brightness Start Highest point End Pass type
(mag) Time Alt. Az. Time Alt. Az. Time Alt. Az.
22 Jun 3.3 04:33:29 11° S 04:34:29 12° SSE 04:35:52 10° SE visible
23 Jun 2.7 05:07:25 10° SW 05:09:47 20° S 05:12:10 10° ESE visible
24 Jun 2.9 04:08:52 16° SSE 04:09:01 16° SSE 04:11:03 10° ESE visible
25 Jun 2.5 04:42:38 15° SW 04:44:22 22° S 04:46:54 10° ESE visible
26 Jun 2.9 03:44:21 18° SSE 03:44:21 18° SSE 03:45:55 10° ESE visible
26 Jun 2.5 05:17:15 10° WSW 05:19:45 22° S 05:22:16 10° SE visible
27 Jun 2.3 04:18:16 21° SSW 04:18:56 23° S 04:21:30 10° SE visible
28 Jun 3.5 03:20:12 12° SE 03:20:12 12° SE 03:20:37 10° ESE visible
28 Jun 2.6 04:52:20 12° SW 04:54:19 19° S 04:56:40 10° SE visible
29 Jun 2.8 03:54:32 19° SSE 03:54:32 19° SSE 03:56:00 10° SE visible
